When you browse on this site, cookies collect data to enhance your experience and personalize the content and advertising you see.
Visit our Privacy Policy to learn more. By continuing to use the site, you agree to this use of cookies and data.
  • en Suisse
  • Liste des pays
  • À 7 jours
  • Température de l'eau
  • Carte satellitaire
  • Carte météo
  • Widgets météo
  • user-avatar
    Se connecter

    Météo par heure à Kaprun

    Ce jour, 20 Mars, Mercredi

    Heure Température Précipitation Vent Pression Humidité
    00:00 -12°C° 0 mm 1 m/s 597 mmHg 94%
    01:00 -12°C° 0 mm 1 m/s 597 mmHg 94%
    02:00 -12°C° 0 mm 1 m/s 597 mmHg 94%
    03:00 -13°C° 0 mm 1 m/s 597 mmHg 93%
    04:00 -14°C° 0 mm 1 m/s 597 mmHg 93%
    05:00 -14°C° 0 mm 1 m/s 597 mmHg 91%
    06:00 -16°C° 0 mm 2 m/s 597 mmHg 89%
    07:00 -15°C° 0 mm 2 m/s 598 mmHg 88%
    08:00 -13°C° 0 mm 2 m/s 599 mmHg 84%
    09:00 -9°C° 0 mm 2 m/s 600 mmHg 80%
    10:00 -7°C° 0 mm 2 m/s 601 mmHg 76%
    11:00 -6°C° 0 mm 2 m/s 601 mmHg 77%
    12:00 -5°C° 0 mm 2 m/s 602 mmHg 79%
    13:00 -4°C° 0 mm 2 m/s 602 mmHg 81%
    14:00 -4°C° 0 mm 2 m/s 602 mmHg 82%
    15:00 -4°C° 0 mm 2 m/s 602 mmHg 83%
    16:00 -4°C° 0 mm 2 m/s 602 mmHg 84%
    17:00 -4°C° 0 mm 1 m/s 601 mmHg 86%
    18:00 -7°C° 0 mm 1 m/s 600 mmHg 89%
    19:00 -9°C° 0 mm 1 m/s 600 mmHg 92%
    20:00 -9°C° 0 mm 1 m/s 600 mmHg 90%
    21:00 -10°C° 0 mm 1 m/s 600 mmHg 88%
    22:00 -13°C° 0 mm 2 m/s 600 mmHg 86%
    23:00 -13°C° 0 mm 2 m/s 600 mmHg 82%

    Demain, 21 Mars, Jeudi

    Heure Température Précipitation Vent Pression Humidité
    00:00 -13°C° 0 mm 2 m/s 600 mmHg 77%
    01:00 -13°C° 0 mm 2 m/s 601 mmHg 72%
    02:00 -13°C° 0 mm 2 m/s 600 mmHg 69%
    03:00 -13°C° 0 mm 2 m/s 600 mmHg 65%
    04:00 -12°C° 0 mm 2 m/s 600 mmHg 62%
    05:00 -12°C° 0 mm 2 m/s 600 mmHg 60%
    06:00 -10°C° 0 mm 2 m/s 601 mmHg 57%
    07:00 -10°C° 0 mm 2 m/s 601 mmHg 55%
    08:00 -6°C° 0 mm 1 m/s 602 mmHg 61%
    09:00 -2°C° 0 mm 1 m/s 603 mmHg 67%
    10:00 +1°C° 0 mm 1 m/s 604 mmHg 73%
    11:00 +2°C° 0 mm 1 m/s 604 mmHg 77%
    12:00 +2°C° 0 mm 1 m/s 604 mmHg 81%
    13:00 +3°C° 0 mm 1 m/s 604 mmHg 84%
    14:00 +3°C° 0 mm 1 m/s 604 mmHg 86%
    15:00 +3°C° 0 mm 1 m/s 603 mmHg 87%
    16:00 +3°C° 0 mm 1 m/s 603 mmHg 89%
    17:00 +1°C° 0 mm 1 m/s 602 mmHg 86%
    18:00 -1°C° 0 mm 1 m/s 602 mmHg 82%
    19:00 -3°C° 0 mm 1 m/s 601 mmHg 79%
    20:00 -3°C° 0 mm 1 m/s 601 mmHg 73%
    21:00 -6°C° 0 mm 2 m/s 601 mmHg 68%
    22:00 -6°C° 0 mm 2 m/s 601 mmHg 62%
    23:00 -6°C° 0 mm 2 m/s 601 mmHg 58%

    Après-demain, 22 Mars, Vendredi

    Heure Température Précipitation Vent Pression Humidité
    00:00 -6°C° 0 mm 2 m/s 601 mmHg 54%
    01:00 -6°C° 0 mm 2 m/s 601 mmHg 49%
    02:00 -6°C° 0 mm 2 m/s 601 mmHg 47%
    03:00 -6°C° 0 mm 2 m/s 601 mmHg 46%
    04:00 -6°C° 0 mm 2 m/s 601 mmHg 44%
    05:00 -6°C° 0 mm 2 m/s 601 mmHg 44%
    06:00 -6°C° 0 mm 2 m/s 601 mmHg 44%
    07:00 -5°C° 0 mm 2 m/s 601 mmHg 44%
    08:00 -3°C° 0 mm 2 m/s 602 mmHg 56%
    09:00 +2°C° 0 mm 1 m/s 603 mmHg 68%
    10:00 +4°C° 0 mm 1 m/s 604 mmHg 80%
    11:00 +5°C° 0 mm 1 m/s 604 mmHg 81%
    12:00 +6°C° 0 mm 1 m/s 604 mmHg 81%
    13:00 +7°C° 0 mm 1 m/s 604 mmHg 81%
    14:00 +6°C° 0 mm 1 m/s 603 mmHg 84%
    15:00 +6°C° 0 mm 1 m/s 603 mmHg 86%
    16:00 +6°C° 0 mm 1 m/s 602 mmHg 88%
    17:00 +4°C° 0 mm 1 m/s 602 mmHg 84%
    18:00 +1°C° 0 mm 1 m/s 601 mmHg 79%
    19:00 -1°C° 0 mm 1 m/s 600 mmHg 75%
    20:00 -1°C° 0 mm 1 m/s 600 mmHg 71%
    21:00 -4°C° 0 mm 2 m/s 600 mmHg 67%
    22:00 -4°C° 0 mm 2 m/s 600 mmHg 63%
    23:00 -4°C° 0 mm 2 m/s 600 mmHg 61%

    23 Mars, Samedi

    Heure Température Précipitation Vent Pression Humidité
    00:00 -4°C° 0 mm 2 m/s 600 mmHg 59%
    01:00 -4°C° 0 mm 2 m/s 600 mmHg 57%
    02:00 -2°C° 0 mm 1 m/s 600 mmHg 58%
    03:00 -3°C° 0 mm 1 m/s 600 mmHg 58%
    04:00 -3°C° 0 mm 1 m/s 600 mmHg 58%
    05:00 -2°C° 0 mm 1 m/s 600 mmHg 61%
    06:00 -2°C° 0 mm 1 m/s 600 mmHg 63%
    07:00 -2°C° 0 mm 1 m/s 600 mmHg 66%
    08:00 0°C° 0 mm 1 m/s 601 mmHg 71%
    09:00 +2°C° 0 mm 1 m/s 602 mmHg 76%
    10:00 +4°C° 0 mm 0 m/s 602 mmHg 82%
    11:00 +4°C° 0 mm 0 m/s 602 mmHg 81%
    12:00 +5°C° 0 mm 0 m/s 602 mmHg 80%
    13:00 +6°C° 0 mm 1 m/s 602 mmHg 79%
    14:00 +6°C° 0 mm 1 m/s 602 mmHg 81%
    15:00 +6°C° 0 mm 1 m/s 602 mmHg 83%
    16:00 +6°C° 0 mm 1 m/s 601 mmHg 85%
    17:00 +4°C° 0 mm 1 m/s 600 mmHg 87%
    18:00 +1°C° 0 mm 1 m/s 600 mmHg 90%
    19:00 -2°C° 0 mm 0 m/s 599 mmHg 93%
    20:00 -1°C° 0 mm 1 m/s 599 mmHg 91%
    21:00 -1°C° 0 mm 1 m/s 599 mmHg 89%
    22:00 -1°C° 0 mm 1 m/s 599 mmHg 88%
    23:00 -1°C° 0 mm 1 m/s 599 mmHg 85%

    24 Mars, Dimanche

    Heure Température Précipitation Vent Pression Humidité
    00:00 -1°C° 0 mm 1 m/s 599 mmHg 81%
    01:00 -1°C° 0 mm 1 m/s 599 mmHg 78%
    02:00 -2°C° 0 mm 1 m/s 599 mmHg 77%
    03:00 -2°C° 0 mm 1 m/s 598 mmHg 76%
    04:00 -2°C° 0 mm 1 m/s 598 mmHg 74%
    05:00 -2°C° 0 mm 1 m/s 598 mmHg 74%
    06:00 -2°C° 0 mm 1 m/s 598 mmHg 73%
    07:00 -1°C° 0 mm 1 m/s 598 mmHg 72%
    08:00 0°C° 0 mm 1 m/s 599 mmHg 75%
    09:00 +2°C° 0 mm 1 m/s 600 mmHg 77%
    10:00 +4°C° 0 mm 1 m/s 600 mmHg 80%
    11:00 +5°C° 0 mm 1 m/s 600 mmHg 81%
    12:00 +5°C° 0 mm 1 m/s 600 mmHg 82%
    13:00 +4°C° 0 mm 2 m/s 600 mmHg 83%
    14:00 +4°C° 0.1 mm 2 m/s 599 mmHg 86%
    15:00 +3°C° 0.1 mm 2 m/s 599 mmHg 89%
    16:00 +2°C° 0.1 mm 2 m/s 598 mmHg 91%
    17:00 +1°C° 0.1 mm 2 m/s 598 mmHg 93%
    18:00 +1°C° 0.1 mm 2 m/s 598 mmHg 95%
    19:00 -1°C° 0.1 mm 2 m/s 598 mmHg 97%
    20:00 0°C° 0 mm 1 m/s 598 mmHg 96%
    21:00 0°C° 0 mm 1 m/s 598 mmHg 95%
    22:00 -1°C° 0 mm 1 m/s 598 mmHg 95%
    23:00 -1°C° 0 mm 1 m/s 598 mmHg 94%

    25 Mars, Lundi

    Heure Température Précipitation Vent Pression Humidité
    00:00 -2°C° 0 mm 1 m/s 598 mmHg 93%
    01:00 -2°C° 0 mm 1 m/s 597 mmHg 93%
    02:00 -2°C° 0 mm 1 m/s 597 mmHg 93%
    03:00 -2°C° 0 mm 1 m/s 597 mmHg 94%
    04:00 -3°C° 0 mm 1 m/s 597 mmHg 94%
    05:00 -4°C° 0 mm 2 m/s 597 mmHg 94%
    06:00 -4°C° 0 mm 2 m/s 597 mmHg 94%
    07:00 -3°C° 0 mm 2 m/s 598 mmHg 94%
    08:00 -3°C° 0.1 mm 2 m/s 598 mmHg 93%
    09:00 -2°C° 0.1 mm 2 m/s 598 mmHg 92%
    10:00 -2°C° 0.1 mm 3 m/s 598 mmHg 91%
    11:00 -1°C° 0.1 mm 2 m/s 597 mmHg 89%
    12:00 -1°C° 0.1 mm 2 m/s 597 mmHg 88%
    13:00 -1°C° 0.1 mm 2 m/s 597 mmHg 87%
    14:00 -1°C° 0.1 mm 3 m/s 596 mmHg 86%
    15:00 -2°C° 0.1 mm 3 m/s 596 mmHg 86%
    16:00 -2°C° 0.1 mm 3 m/s 595 mmHg 86%
    17:00 -4°C° 0.1 mm 3 m/s 595 mmHg 88%
    18:00 -5°C° 0.1 mm 3 m/s 595 mmHg 91%
    19:00 -5°C° 0.1 mm 3 m/s 594 mmHg 93%
    20:00 -6°C° 0.2 mm 3 m/s 594 mmHg 94%
    21:00 -6°C° 0.2 mm 3 m/s 594 mmHg 95%
    22:00 -7°C° 0.2 mm 3 m/s 594 mmHg 96%
    23:00 -7°C° 0.2 mm 3 m/s 594 mmHg 95%
    Voir plus